Location: Dana
(41.8364°N, 106.7042°W)
Time: 05:02:14
(UTC+00:00)

Tiros 1 despin weight - All Passes

Search period start: 10 May 2026 00:00
Search period end: 20 May 2026 00:00
Orbit: 555 x 591 km, 48.2° (Epoch: 9 May)

Date Brightness Start Highest point End Pass type
(mag) Time Alt. Az. Time Alt. Az. Time Alt. Az.
10 May - 13:33:23 10° SW 13:37:22 42° SE 13:41:20 10° ENE daylight
10 May - 15:13:46 10° W 15:17:52 51° NNW 15:21:58 10° ENE daylight
10 May - 16:55:08 10° WNW 16:58:58 33° N 17:02:49 10° ENE daylight
10 May - 18:35:53 10° WNW 18:40:01 57° NNE 18:44:10 10° E daylight
10 May - 20:16:36 10° WNW 20:20:27 36° SW 20:24:19 10° SSE daylight
11 May - 11:57:39 10° SSE 11:59:14 12° SE 12:00:48 10° ESE daylight
11 May - 13:34:58 10° SW 13:39:07 63° SSE 13:43:17 10° ENE daylight
11 May - 15:15:49 10° W 15:19:49 42° NNW 15:23:49 10° ENE daylight
11 May - 16:57:06 10° WNW 17:00:59 35° N 17:04:51 10° ENE daylight
11 May - 18:37:43 10° WNW 18:41:55 75° NNE 18:46:07 10° ESE daylight
11 May - 20:18:45 10° W 20:22:08 24° SW 20:25:31 10° SSE daylight
12 May - 11:57:51 10° S 12:00:50 19° SE 12:03:48 10° E daylight
12 May - 13:36:42 10° WSW 13:40:56 90° SSW 13:45:09 10° ENE daylight
12 May - 15:17:52 10° WNW 15:21:47 37° N 15:25:43 10° ENE daylight
12 May - 16:59:01 10° WNW 17:02:58 38° N 17:06:55 10° E daylight
12 May - 18:39:33 10° WNW 18:43:45 79° SSW 18:47:57 10° SE daylight
12 May - 20:21:15 10° W 20:23:46 16° SW 20:26:17 10° S daylight
13 May - 11:58:50 10° SSW 12:02:28 28° SE 12:06:07 10° E daylight
13 May - 13:38:35 10° WSW 13:42:47 67° NNW 13:46:59 10° ENE daylight
13 May - 15:19:55 10° WNW 15:23:47 34° N 15:27:38 10° ENE daylight
13 May - 17:00:53 10° WNW 17:04:55 45° NNE 17:08:58 10° E daylight
13 May - 18:41:27 10° WNW 18:45:32 54° SW 18:49:38 10° SE daylight
14 May - 12:00:10 10° SW 12:04:10 42° SE 12:08:10 10° ENE daylight
14 May - 13:40:33 10° W 13:44:40 51° NNW 13:48:48 10° ENE daylight
14 May - 15:21:56 10° WNW 15:25:47 33° N 15:29:37 10° ENE daylight
14 May - 17:02:42 10° WNW 17:06:51 57° NNE 17:10:58 10° E daylight
14 May - 18:43:25 10° WNW 18:47:16 36° SW 18:51:06 10° SSE daylight
15 May - 10:24:24 10° SSE 10:26:01 12° SE 10:27:38 10° ESE visible
15 May - 12:01:43 10° SW 12:05:55 63° SSE 12:10:05 10° ENE daylight
15 May - 13:42:34 10° W 13:46:36 42° NNW 13:50:37 10° ENE daylight
15 May - 15:23:53 10° WNW 15:27:46 35° N 15:31:38 10° ENE daylight
15 May - 17:04:31 10° WNW 17:08:42 75° NNE 17:12:54 10° ESE daylight
15 May - 18:45:32 10° W 18:48:55 24° SW 18:52:18 10° SSE daylight
16 May - 10:24:36 10° S 10:27:35 19° SE 10:30:35 10° E visible
16 May - 12:03:27 10° WSW 12:07:42 90° SSE 12:11:56 10° ENE daylight
16 May - 13:44:37 10° WNW 13:48:34 37° N 13:52:29 10° ENE daylight
16 May - 15:25:47 10° WNW 15:29:44 38° N 15:33:41 10° E daylight
16 May - 17:06:20 10° WNW 17:10:31 79° SSW 17:14:42 10° SE daylight
16 May - 18:48:01 10° W 18:50:32 16° SW 18:53:02 10° S daylight
17 May - 10:25:33 10° SSW 10:29:14 28° SE 10:32:52 10° E visible
17 May - 12:05:18 10° WSW 12:09:32 67° NNW 12:13:44 10° ENE daylight
17 May - 13:46:39 10° WNW 13:50:32 34° N 13:54:24 10° ENE daylight
17 May - 15:27:37 10° WNW 15:31:40 45° NNE 15:35:42 10° E daylight
17 May - 17:08:11 10° WNW 17:12:17 54° SW 17:16:22 10° SE daylight
18 May - 10:26:52 10° SW 10:30:54 42° SE 10:34:55 10° ENE visible
18 May - 12:07:15 10° W 12:11:24 52° NNW 12:15:32 10° ENE daylight
18 May - 13:48:38 10° WNW 13:52:30 34° N 13:56:21 10° ENE daylight
18 May - 15:29:25 10° WNW 15:33:34 56° NNE 15:37:41 10° E daylight
18 May - 17:10:08 10° WNW 17:14:00 36° SW 17:17:49 10° SSE daylight
19 May - 08:51:04 10° SSE 08:52:43 12° SE 08:54:22 10° ESE visible
19 May - 10:28:23 10° SW 10:32:37 63° SSE 10:36:49 10° ENE visible
19 May - 12:09:15 10° W 12:13:19 42° NNW 12:17:21 10° ENE daylight
19 May - 13:50:34 10° WNW 13:54:28 35° N 13:58:21 10° ENE daylight
19 May - 15:31:12 10° WNW 15:35:25 75° NNE 15:39:36 10° ESE daylight
19 May - 17:12:14 10° W 17:15:38 24° SW 17:19:01 10° SSE daylight
